Weather Roundup
Issued by NWS

Home | Current Version | Previous Version | Graphics & Text | Print | Product List | Glossary Off
Versions: 1 2 3 4 5 6 7 8 9 10 11 12 13 14 15 16 17 18 19 20 21 22 23 24 25 26 27 28 29 30 31 32 33 34 35 36 37 38 39 40 41 42 43 44 45 46 47 48 49 50

000
NZUS93 KARX 172059
HRRWXR

CURRENT HOURLY OBSERVATIONS ACROSS
MUCH OF THE UPPER MISSISSIPPI VALLEY
NATIONAL WEATHER SERVICE LA CROSSE WI
300 PM CST SAT FEB 17 2018


...SOUTHEAST MINNESOTA...


CITY           SKY/WX    TMP DP  RH WIND       PRES   REMARKS
ROCHESTER      PTSUNNY   27  23  85 W17       29.90R WCI  14
ROCHESTER/MAYO CLOUDY    30  24  79 W16       29.90R WCI  18
WINONA         CLOUDY    30  23  74 W7        29.91R WCI  23
AUSTIN         PTSUNNY   28  23  80 W10       29.92R WCI  19
ALBERT LEA     FAIR      30  21  69 W9        29.92R WCI  22
DODGE CENTER   PTSUNNY   28  23  80 W14       29.90R WCI  17
PRESTON        CLOUDY    28  23  82 W14       29.91R WCI  17
OWATONNA       FAIR      32  25  74 W8        29.91R WCI  25
FARIBAULT      FAIR      34  25  69 W9        29.92R WCI  26
$$

...ELSEWHERE IN MINNESOTA...


CITY           SKY/WX    TMP DP  RH WIND       PRES   REMARKS
MINNEAPOLIS    PTSUNNY   37  21  52 W13       29.89R WCI  29
INTNL FALLS    FAIR      20   2  45 W17       29.78R WCI   5
DULUTH         FAIR      28  11  48 W20G28    29.76R WCI  15
RED WING       CLOUDY    30  21  69 W8        29.91R WCI  23
REDWOOD FALLS  SUNNY     34  16  47 NW15G24   29.95R WCI  24
MANKATO        FAIR      35  21  56 NW16G22   29.93R WCI  25
WORTHINGTON    SUNNY     34  24  67 W16       29.96S WCI  24
FAIRMONT       SUNNY     34  26  72 NW18      29.96R WCI  23
$$

...SOUTHWEST WISCONSIN...


CITY           SKY/WX    TMP DP  RH WIND       PRES   REMARKS
LA CROSSE      CLOUDY    31  23  72 W7        29.91R WCI  24
PRAIRIE DU CHI CLOUDY    30  23  75 W7        29.93S WCI  23
BOSCOBEL       CLOUDY    30  24  78 SW8       29.94R WCI  22
LONE ROCK      SNOW      27  27 100 SW3       29.93R VSB 1/4
PLATTEVILLE    CLOUDY    29  28  99 SW9       29.91R VSB 1   WCI  20
FORT MC COY    FLURRIES  28  23  81 W8        29.90S WCI  20
CAMP DOUGLAS   FLURRIES  28  23  80 SW7       29.87F WCI  21
MAUSTON-NEW LI LGT SNOW  28  23  82 W7        29.88R WCI  20
VIROQUA        CLOUDY    27  24  88 W9        29.87S WCI  18
WIS DELLS      LGT SNOW  26  23  87 SW5       29.89R WCI  21
$$

...ELSEWHERE IN WISCONSIN...


CITY           SKY/WX    TMP DP  RH WIND       PRES   REMARKS
MILWAUKEE      LGT SNOW  32  25  75 SW9       29.92R WCI  24
MADISON        LGT SNOW  28  24  85 VRB3      29.91R VSB 3/4
GREEN BAY      LGT SNOW  25  20  81 S10       29.87F VSB 1   WCI  15
EAU CLAIRE     NOT AVBL
BLACK RVR FLS  FLURRIES  30  22  73 SW5       29.87F WCI  25
MEDFORD        CLOUDY    24  19  84 SW8       29.81S WCI  14
WAUSAU         CLOUDY    25  19  78 W7        29.81S WCI  17
WIS RAPIDS     LGT SNOW  26  20  77 W7        29.87S WCI  18
MARSHFIELD     FLURRIES  25  20  81 W9        29.83R WCI  15
RICE LAKE      FAIR      32  21  64 W13       29.84S WCI  22
$$

...NORTHEAST IOWA...


CITY           SKY/WX    TMP DP  RH WIND       PRES   REMARKS
WATERLOO       CLOUDY    29  24  82 W15G23    29.96R WCI  18
DUBUQUE        CLOUDY    28  23  81 W12       29.91R HAZE    WCI  18
DECORAH        CLOUDY    28  23  80 W9G17     29.91R WCI  20
MASON CITY     MOSUNNY   32  25  75 NW10      29.96R WCI  24
CHARLES CITY   CLOUDY    30  30 100 W10G20    29.94R WCI  21
OELWEIN        CLOUDY    28  28 100 NW20      29.94R WCI  15
$$

...ELSEWHERE IN IOWA...


CITY           SKY/WX    TMP DP  RH WIND       PRES   REMARKS
DES MOINES     MOSUNNY   39  29  67 NW16      30.02R WCI  30
IOWA CITY      CLOUDY    33  25  72 W16       29.98R WCI  23
FORT DODGE     MOSUNNY   32  27  81 W9        29.99R WCI  24
MARSHALLTOWN   CLOUDY    31  26  82 NW17      29.99R WCI  19
CEDAR RAPIDS   CLOUDY    31  25  78 NW15      29.95R WCI  20
$$

...NORTHERN ILLINOIS...


CITY           SKY/WX    TMP DP  RH WIND       PRES   REMARKS
CHICAGO-OHARE  FLURRIES  35  26  69 SW8       29.91F WCI  29
CHICAGO-MIDWAY FLURRIES  35  28  75 S15G25    29.93F WCI  25
MOLINE         CLOUDY    33  28  81 W15       29.94R WCI  23
ROCKFORD       SNOW      29  28  96 S6        29.94R VSB 1/2 WCI  23
PEORIA         CLOUDY    33  31  92 SW13      29.97R WCI  24
$$

NOTE: "FAIR" INDICATES FEW OR NO CLOUDS BELOW 12,000 FEET WITH NO
SIGNIFICANT WEATHER AND/OR OBSTRUCTIONS TO VISIBILITY. WIND
SPEEDS ARE IN MILES-PER-HOUR.




USA.gov is the U.S. government's official web portal to all federal, state and local government web resources and services.